Content
SEND FEEDBACK

Daily
Averages
Monthly
Summary
United States of America

YIGO, GUAM


Home > North America > United States > Guam
Elevation: 530 feet     Latitude: 13 32N     Longitude: 144 53E

WEATHER
 
SELECT A DAY
Number of Records: 209,044;   Date Range: 1/1/95 - 7/29/14
 
SHARE

PRINT THIS DATA

[ ← Previous Day ]
WEATHER ALMANAC - DECEMBER 24, 2013
[ Next Day → ]
[ °C ]   °F
Weather ElementAverageHighLow
Temperature79.6 °F84.9 °F (10:54 am)73.4 °F (4:04 am)
Dewpoint73.6 °F75.2 °F (5:32 am)71.6 °F (11:47 am)
Humidity82.9 %100 % (3:54 am)66 % (11:47 am)
Barometer29.90 in29.96 in (8:54 am)29.86 in (2:54 am)
Wind Speed18.6 mph26.5 mph (1:29 pm)
Wind Gust33.4 mph (3:54 pm)
Weather ElementAverage
Visibility8.7 mi
Wind DirectionENE (52.6 °)

Weather ElementTotal
Precipitation0.45 in
Cooling Degree Days14.2 (Base 65)
Growing Degree Days29.2 (Base 50)
Averaged from 31 records on December 24, 2013
WEATHER CONDITIONS BREAKOUT
WIND DIRECTION BREAKOUT
WEATHER BY HOUR - DECEMBER 24, 2013
[ °C ]   °F
Local TimeTemperatureDewpointHumidityBarometerVisibilityWind DirectionWind SpeedGust SpeedPrecipitationEventsConditions
1:54 AM78.1 °F73.9 °F87 %29.88 in10.0 miNNE (30°)12.7 mphMostly Cloudy
2:54 AM77.0 °F73.0 °F88 %29.86 in10.0 miNNE (30°)13.8 mph23.0 mph0.00 inScattered Clouds
3:50 AM75.2 °F73.4 °F94 %29.90 in2.5 miENE (60°)19.6 mph26.5 mph0.05 inRainHeavy Rain
3:54 AM73.9 °F73.9 °F100 %29.88 in2.5 miNE (50°)18.4 mph26.5 mph0.06 inRainHeavy Rain
4:04 AM73.4 °F73.4 °F100 %29.90 in3.0 miNE (50°)13.8 mph24.2 mph0.03 inRainLight Rain
4:54 AM75.0 °F73.9 °F96 %29.88 in7.0 miNE (50°)15.0 mph0.06 inRainLight Rain
5:32 AM75.2 °F75.2 °F100 %29.91 in2.5 miENE (70°)10.4 mph0.04 inRainHeavy Rain
5:37 AM75.2 °F75.2 °F100 %29.92 in3.0 miENE (70°)16.1 mph23.0 mph0.07 inRainRain
5:49 AM75.2 °F75.2 °F100 %29.91 in8.0 miENE (60°)16.1 mph23.0 mph0.07 inRainLight Rain
5:54 AM75.9 °F75.0 °F97 %29.89 in10.0 miENE (60°)15.0 mph0.07 inRainLight Rain
6:54 AM77.0 °F73.9 °F90 %29.91 in10.0 miNE (50°)15.0 mph0.00 inOvercast
7:54 AM78.1 °F73.9 °F87 %29.93 in10.0 miENE (60°)18.4 mph26.5 mphPartly Cloudy
8:54 AM81.0 °F73.9 °F79 %29.96 in10.0 miENE (60°)17.3 mphMostly Cloudy
9:54 AM82.9 °F73.0 °F72 %29.94 in10.0 miNE (50°)23.0 mph29.9 mphPartly Cloudy
10:54 AM84.9 °F73.0 °F67 %29.94 in10.0 miNE (50°)19.6 mph27.6 mphMostly Cloudy
11:47 AM84.2 °F71.6 °F66 %29.94 in10.0 miNE (50°)23.0 mph31.1 mphMostly Cloudy
11:54 AM84.0 °F72.0 °F67 %29.92 in10.0 miNE (50°)24.2 mph31.1 mphOvercast
12:54 PM84.0 °F73.0 °F69 %29.89 in10.0 miNE (50°)23.0 mph32.2 mphOvercast
1:20 PM84.2 °F73.4 °F70 %29.90 in10.0 miNE (50°)23.0 mph31.1 mphOvercast
1:29 PM84.2 °F73.4 °F70 %29.90 in10.0 miENE (60°)26.5 mph32.2 mphOvercast
1:54 PM84.9 °F73.0 °F67 %29.87 in10.0 miNE (50°)23.0 mph31.1 mphMostly Cloudy
2:54 PM84.0 °F73.0 °F69 %29.86 in10.0 miNE (50°)23.0 mph28.8 mph0.00 inMostly Cloudy
3:54 PM82.0 °F73.0 °F74 %29.87 in10.0 miENE (60°)18.4 mph33.4 mphMostly Cloudy
4:54 PM82.0 °F73.0 °F74 %29.88 in10.0 miNE (50°)19.6 mph33.4 mphClear
5:54 PM81.0 °F73.0 °F77 %29.89 in10.0 miNE (50°)18.4 mph27.6 mphOvercast
6:54 PM81.0 °F72.0 °F74 %29.91 in10.0 miNE (50°)18.4 mph29.9 mphMostly Cloudy
7:54 PM80.1 °F73.0 °F79 %29.92 in10.0 miNE (50°)20.7 mph24.2 mphOvercast
8:54 PM77.0 °F75.0 °F94 %29.93 in10.0 miNE (50°)17.3 mph25.3 mph0.00 inOvercast
9:54 PM78.1 °F75.0 °F90 %29.93 in10.0 miNE (50°)19.6 mph0.00 inMostly Cloudy
10:54 PM79.0 °F75.0 °F88 %29.92 in10.0 miENE (60°)17.3 mph26.5 mph0.00 inRainLight Rain
11:54 PM79.0 °F73.9 °F84 %29.91 in10.0 miNE (50°)18.4 mph23.0 mph0.00 inMostly Cloudy
Hourly data recorded from PGUM, located miles away from Yigo, Guam







STORIES FROM OUR PARTNERS